RH
72 70 69 68 66 66 66 66 68 71 71 70 72 71 71 72 73 74 75 79 82 83 83 82 83 82 82 57 30 14 49 38 25 15 15 12 11 13 19 13 13 14 11 9 8 6 7
70 71 71 72 69 68 66 67 70 71 70 69 71 71 72 74 74 73 75 80 84 83 83 82 82 82 81 57 13 13 11 10 9 8 9 10 9 9 10 13 13 12 8 7 9 7 9
70 71 73 75 70 70 69 70 73 71 70 68 70 74 73 74 75 75 76 80 85 84 82 81 80 59 56 43 14 13 11 11 10 9 12 10 10 13 12 18 12 8 10 9 9 10 12
76 75 72 75 76 76 74 73 72 70 70 70 70 73 77 79 79 80 81 84 83 84 82 79 77 58 60 22 21 11 12 11 9 9 11 10 11 12 15 14 10 11 12 16 11 11 8
75 76 76 75 79 78 78 78 77 71 72 72 72 76 78 80 81 81 81 85 84 85 83 78 70 64 50 24 14 12 15 12 10 11 13 7 12 15 13 14 13 19 15 14 13 9 8
69 73 75 77 79 78 78 77 78 78 75 75 75 76 77 79 78 80 82 82 76 77 55 36 30 50 35 14 13 12 13 12 13 13 15 15 16 16 16 16 17 14 11 14 13 10 18
66 66 68 70 74 76 76 77 80 81 79 77 75 76 78 77 78 75 85 79 49 55 49 32 23 22 15 13 11 13 12 15 16 17 17 15 19 20 15 14 10 9 10 15 14 10 23
64 66 66 66 67 70 73 76 80 85 82 79 79 80 80 78 77 76 93 78 46 50 63 35 24 16 13 11 14 13 12 17 19 20 17 20 21 16 12 9 9 9 11 16 23 20 25
63 58 58 61 65 66 68 71 75 81 85 85 80 80 81 81 77 84 79 50 44 54 75 37 26 16 15 14 16 14 14 15 18 21 20 20 19 13 12 12 11 12 15 22 26 25 26
58 60 61 60 63 65 66 68 69 73 79 86 85 81 82 82 79 71 68 51 53 65 87 35 22 16 13 12 19 14 16 20 16 17 18 22 17 15 14 12 17 20 14 17 23 31 42
58 59 59 64 61 62 62 66 69 70 71 78 87 83 82 81 86 80 57 63 62 78 94 28 16 12 12 16 20 18 16 20 24 21 21 24 18 16 16 19 17 20 16 14 18 30 36
58 61 61 65 65 67 63 69 68 71 72 72 83 88 82 74 74 62 55 64 89 89 86 26 17 18 18 16 18 17 18 20 20 20 18 17 14 19 22 19 16 17 18 17 18 22 41
60 63 65 67 63 66 68 69 72 72 75 72 79 86 87 73 83 58 60 92 91 93 28 20 23 18 18 18 16 19 20 25 25 30 29 20 20 21 18 20 20 20 27 39 36 38 40
56 57 63 66 64 62 67 68 75 77 81 73 78 85 85 74 76 72 89 97 94 55 36 16 16 19 21 17 17 22 21 24 21 20 28 30 32 21 18 20 23 23 28 55 45 46 31
52 53 54 59 62 59 62 66 71 76 80 77 78 94 88 77 80 90 93 97 85 60 25 23 17 23 23 17 19 24 26 23 19 18 30 29 25 18 16 18 20 24 28 26 43 39 42
55 52 55 54 54 55 57 64 69 76 78 76 97 97 89 69 78 92 96 83 76 45 30 25 32 23 28 20 25 30 29 25 19 16 27 35 34 19 19 21 21 32 29 40 47 48 46
54 52 51 55 54 55 55 65 71 75 78 78 99 89 79 82 88 96 95 87 56 41 36 34 31 26 22 26 27 33 30 23 17 25 25 33 36 31 25 29 29 35 41 36 37 49 51
55 55 55 52 53 56 57 66 70 72 78 83 89 97 81 89 100 95 95 68 52 41 35 39 34 31 31 25 31 31 28 30 24 28 34 38 41 46 29 24 24 31 35 38 60 45 50
54 55 54 54 51 54 62 66 67 72 71 98 97 95 72 85 99 99 84 64 50 52 50 41 39 28 29 33 42 30 30 27 26 30 37 34 52 53 40 32 29 34 27 31 48 53 46
57 57 54 54 52 51 57 61 67 68 70 94 98 98 96 94 94 92 88 83 67 45 48 46 46 44 32 36 34 39 40 36 31 36 50 45 46 51 57 42 43 40 33 32 50 81 63
58 58 58 56 54 51 51 58 65 66 67 95 96 94 86 98 98 97 86 77 82 70 42 44 46 48 43 50 42 40 44 38 34 52 41 49 61 47 40 29 26 30 31 33 45 46 56
62 61 57 57 55 53 50 52 59 58 60 98 100 99 89 92 72 85 97 83 77 64 66 51 52 43 38 45 44 43 45 48 46 45 46 48 60 50 45 26 26 34 26 29 33 32 31
62 65 59 58 57 54 52 50 53 54 62 100 99 93 99 83 82 83 86 74 87 63 57 54 53 52 41 35 37 38 42 43 46 52 56 55 68 70 62 38 40 52 41 26 28 27 32
63 63 61 60 56 55 53 53 50 51 57 94 99 100 99 92 89 76 60 58 80 79 74 46 46 54 41 31 40 45 40 37 47 45 48 61 61 66 78 57 63 40 27 25 25 22 27
64 63 61 61 59 55 56 54 51 51 50 84 92 100 99 96 80 74 62 59 57 75 69 62 50 39 38 39 64 66 76 60 51 40 42 50 60 82 75 82 48 39 28 25 28 29 27
64 64 62 62 62 60 58 58 56 52 51 72 93 94 99 99 81 64 72 62 71 90 80 71 45 46 46 58 91 86 86 71 67 54 33 44 59 81 92 75 73 53 31 24 25 42 24
64 64 61 63 64 62 59 58 58 53 51 73 90 92 99 99 82 81 87 78 58 72 96 87 64 55 49 82 96 92 88 52 72 64 56 59 74 78 94 93 78 35 26 26 39 39 27
64 65 64 63 65 65 61 60 59 56 52 71 88 89 99 98 92 70 69 78 70 74 90 74 90 72 81 87 75 96 93 69 66 53 51 59 76 89 88 88 66 31 29 36 44 41 31
65 65 65 64 65 66 64 60 59 59 53 58 90 84 88 100 96 75 74 60 53 53 73 77 95 95 81 90 91 87 92 82 69 66 44 68 66 77 65 68 52 31 44 46 41 41 40
Wind_Speed
12 13 14 14 15 16 17 17 18 18 19 20 20 21 21 22 22 22 22 22 22 21 18 16 14 10 6 2 9 7 7 6 4 4 8 8 7 4 4 4 3 9 6 7 7 5 5
14 13 14 12 12 15 16 16 17 17 18 21 22 22 23 24 24 23 22 22 22 21 17 13 11 7 1 4 3 6 4 4 6 4 7 8 6 6 8 5 7 9 11 7 6 4 6
18 15 14 13 10 12 13 15 15 18 19 20 22 22 23 25 25 25 24 23 22 21 16 10 8 4 4 13 2 3 3 3 2 4 6 7 5 4 7 1 5 13 11 8 5 2 6
20 19 17 14 12 12 13 13 14 17 19 21 22 22 22 23 25 25 25 25 24 20 14 8 4 4 7 7 8 7 4 4 5 7 5 6 6 5 3 3 4 6 7 5 4 1 4
23 23 22 19 18 15 13 13 14 16 18 20 22 22 22 23 25 26 25 29 24 17 9 4 1 3 8 1 4 4 1 4 4 3 3 6 3 3 4 7 3 2 6 8 4 5 4
22 22 23 24 23 20 19 16 15 15 17 19 21 22 23 24 25 26 28 30 16 6 4 6 6 2 6 7 5 2 3 6 4 5 2 2 2 2 1 5 10 8 6 5 8 9 11
22 22 22 22 24 24 24 23 20 17 16 18 21 22 24 26 26 26 16 8 5 3 2 8 7 6 4 5 4 6 6 3 3 3 5 5 3 8 9 8 7 10 6 7 7 9 21
22 22 22 22 23 23 24 23 23 21 18 18 19 22 25 27 30 27 5 4 4 3 8 12 20 15 11 6 6 7 7 6 4 6 6 2 8 8 7 14 13 11 6 11 18 20 21
23 22 22 22 23 22 24 24 23 23 22 19 18 21 24 29 32 9 5 6 7 9 4 9 13 13 7 3 7 9 9 5 6 7 7 6 2 4 5 4 6 6 19 18 26 17 17
21 21 22 22 22 22 23 24 24 23 24 23 19 19 22 29 7 7 4 10 9 5 3 7 10 7 13 7 6 4 2 3 6 9 7 5 2 4 4 4 5 6 12 20 22 22 16
21 21 21 23 23 24 23 23 23 25 24 24 23 17 18 19 5 6 10 10 9 4 4 3 7 2 9 7 6 5 3 4 6 2 6 4 7 5 4 2 4 5 8 16 14 11 7
23 22 21 20 22 23 25 24 22 26 26 23 22 21 15 7 7 6 12 14 3 8 9 4 6 6 8 12 7 5 4 5 5 4 7 6 3 3 2 4 8 3 10 9 5 5 5
23 24 24 25 24 24 25 26 25 26 26 24 21 23 13 6 6 11 13 5 6 5 7 7 6 10 9 10 12 8 7 5 5 5 4 4 2 1 5 9 4 4 8 4 1 3 5
23 23 25 25 26 25 27 27 26 25 26 22 22 24 8 8 7 5 4 0 6 9 9 7 8 9 12 10 13 9 8 6 8 5 7 6 4 7 3 4 7 6 6 7 8 6 5
22 23 23 24 25 26 26 27 26 26 26 20 19 4 5 7 10 4 2 8 10 6 7 4 4 7 8 14 8 8 8 11 8 11 6 7 3 5 10 1 6 7 8 3 1 3 5
20 21 23 24 25 25 26 27 27 26 25 19 5 4 7 9 6 3 3 9 7 10 11 7 4 9 9 13 10 10 8 9 15 12 6 1 6 5 4 5 4 1 2 4 1 7 6
20 20 21 22 24 25 24 25 27 26 26 21 3 5 6 5 6 3 8 8 9 17 16 7 5 5 9 9 10 8 5 8 14 4 8 2 6 5 6 6 6 4 3 4 5 5 6
20 20 21 22 23 24 24 25 25 26 26 9 4 4 3 3 2 4 4 3 8 18 13 14 8 4 5 9 9 9 13 7 6 8 8 1 6 5 5 1 1 2 5 5 5 4 3
20 19 21 21 22 23 22 24 24 24 25 6 4 4 8 3 6 6 6 12 14 18 15 6 7 5 7 6 4 10 8 9 11 7 7 4 2 5 2 3 2 4 5 7 5 3 4
20 19 19 20 20 22 22 22 24 23 24 9 2 5 4 2 3 6 9 10 17 12 21 21 17 19 12 8 7 8 4 2 5 5 7 2 4 8 8 8 8 6 6 4 7 5 3
20 20 19 19 19 20 22 20 22 23 23 6 1 4 4 5 3 8 11 13 18 12 15 16 8 19 15 5 8 5 5 6 5 2 4 3 4 5 3 6 6 15 13 10 7 6 6
23 21 20 19 19 18 19 20 19 21 22 2 3 2 5 5 10 14 13 11 20 21 18 21 17 19 13 8 8 7 9 5 7 3 6 2 3 4 2 3 6 11 11 11 9 7 4
21 22 22 21 17 20 18 19 19 19 13 4 2 4 7 5 5 9 5 11 14 17 21 21 22 16 18 13 9 7 10 12 10 10 6 7 4 4 4 3 6 7 10 17 9 8 9
23 22 23 22 20 20 19 18 18 18 15 2 3 3 4 10 10 13 14 19 22 27 23 24 21 17 14 6 3 6 9 12 11 10 8 7 5 4 4 6 0 10 10 9 16 13 8
24 24 24 22 23 19 19 19 18 18 19 5 3 5 4 8 10 15 18 16 16 22 23 23 29 21 20 12 3 5 2 3 4 12 10 7 5 4 7 4 5 4 5 14 10 11 11
24 25 24 23 23 22 20 21 20 19 20 9 3 7 7 5 10 17 18 17 14 12 19 25 25 18 12 11 5 7 7 6 6 6 13 9 3 6 3 7 10 9 11 8 7 5 11
25 26 25 24 25 24 22 22 22 20 21 10 6 9 6 10 9 13 12 12 10 7 11 14 14 15 11 8 4 4 5 9 7 11 14 11 3 8 3 3 8 5 15 8 9 12 12
26 26 27 25 25 25 24 23 22 22 20 14 9 7 9 8 9 14 24 20 15 11 14 13 12 4 9 11 10 6 5 8 5 7 14 11 9 6 4 3 9 9 9 12 9 2 10
28 27 27 26 26 26 25 24 23 24 22 19 11 7 10 9 9 20 24 30 27 23 11 10 11 22 6 5 3 5 3 5 9 8 10 6 9 8 11 9 7 12 6 4 5 8 7
Wind_Direction
3 2 0 2 1 358 355 353 353 348 347 346 343 342 340 337 334 331 332 325 320 318 321 328 328 333 359 216 258 200 200 243 240 226 226 244 264 233 248 278 244 109 116 80 102 21 51
360 352 350 351 355 356 354 351 346 348 350 347 342 339 338 336 332 328 328 320 314 310 313 325 324 316 105 241 227 163 127 272 246 281 288 255 246 281 280 281 159 131 106 102 115 64 56
3 350 352 351 348 346 345 343 347 347 345 344 343 342 339 334 328 325 321 314 307 306 305 316 312 283 267 247 21 12 270 203 301 288 289 314 344 19 321 70 352 99 90 66 21 113 116
15 9 2 356 343 334 331 339 341 345 343 343 344 342 336 331 326 321 321 310 304 303 298 299 266 268 249 264 224 244 322 274 201 264 268 324 337 274 248 113 18 107 93 106 276 112 357
16 15 12 2 356 344 332 331 335 340 340 339 338 339 336 331 326 322 323 309 301 292 248 181 252 216 269 222 242 192 251 293 174 255 332 318 335 233 359 113 57 313 160 126 170 197 117
12 12 11 11 9 359 349 336 338 339 337 336 335 335 334 329 326 325 324 301 285 310 212 194 245 275 252 236 158 244 161 285 235 191 198 231 249 180 130 133 193 183 155 159 154 194 105
9 6 6 6 7 5 4 359 349 341 334 333 332 331 329 329 325 325 337 345 8 347 270 214 167 234 137 137 128 227 175 248 287 217 205 204 144 205 204 217 216 179 162 143 186 154 113
8 6 4 1 1 358 357 358 358 350 335 331 330 329 327 325 323 320 300 305 27 252 302 271 255 264 258 149 205 220 145 177 182 215 235 177 224 227 232 216 226 255 197 143 113 118 117
2 2 359 357 356 356 354 351 351 351 351 334 328 328 327 324 320 321 273 0 13 23 256 271 225 231 229 152 256 188 168 199 214 226 238 177 290 164 241 185 187 191 149 140 134 120 113
2 358 358 359 355 353 351 352 349 348 346 345 329 326 328 332 340 341 344 357 341 11 324 260 181 225 220 188 245 124 174 231 220 216 195 151 250 214 228 210 88 104 164 140 139 133 150
2 356 358 353 351 352 350 346 349 346 343 339 339 322 327 335 273 308 349 345 323 58 6 200 156 211 141 191 138 223 211 280 249 294 116 187 179 211 212 24 37 169 160 153 157 134 127
0 357 357 352 351 356 350 344 348 345 336 334 333 328 325 331 317 271 329 325 348 52 257 226 131 179 176 219 192 143 194 216 263 128 82 161 191 37 94 33 99 141 85 65 131 166 194
3 359 2 358 355 356 351 350 343 342 336 328 324 327 307 293 252 329 323 330 58 161 285 199 168 173 202 193 231 161 208 210 193 123 138 67 75 8 130 83 50 72 96 81 33 246 206
359 355 358 356 355 351 352 347 345 340 336 329 322 314 263 243 253 315 325 324 190 216 235 28 148 178 196 197 216 175 191 222 249 216 127 166 192 163 214 170 169 196 155 152 177 183 154
358 353 349 350 350 346 346 344 342 341 336 332 321 284 264 246 218 165 259 212 204 220 207 218 214 171 198 222 182 168 218 211 221 222 156 170 243 145 168 117 121 207 230 179 154 112 92
352 354 350 351 345 342 342 342 341 341 337 336 318 286 261 232 194 128 211 231 234 233 292 322 279 190 189 215 191 167 195 211 224 207 131 185 122 187 115 45 291 191 274 146 284 165 171
345 348 343 346 348 342 340 341 339 340 339 326 287 306 281 78 105 159 223 228 258 269 288 292 302 230 196 206 180 183 235 250 209 126 90 81 113 181 118 202 178 169 221 202 164 148 165
336 338 343 345 346 341 341 341 341 344 347 336 312 281 313 84 184 232 219 229 271 270 264 260 302 287 282 227 176 200 207 228 104 126 137 138 130 140 191 288 123 215 205 177 127 213 171
326 334 334 339 344 338 343 338 343 346 350 315 288 284 293 193 247 231 281 290 259 271 276 282 269 240 271 247 245 189 208 226 149 132 158 180 138 106 148 303 214 219 220 187 112 85 200
320 322 326 330 337 336 334 343 343 349 347 336 311 312 300 203 248 284 289 256 258 291 247 264 278 296 276 271 269 207 136 64 112 83 93 33 193 155 178 210 157 185 204 204 131 113 215
312 317 319 321 325 334 329 338 339 343 349 332 231 249 293 308 294 273 256 274 288 278 273 273 264 244 257 243 270 229 100 100 88 115 88 112 178 188 99 28 169 180 190 194 149 167 141
309 311 311 312 313 321 327 325 330 337 345 293 300 287 309 288 316 308 275 241 248 268 276 273 254 265 272 227 206 224 131 137 175 175 148 193 234 153 112 43 358 182 199 190 168 175 165
301 302 301 303 311 309 316 322 328 330 349 296 326 277 273 270 276 282 262 299 296 264 262 268 274 284 258 238 241 243 164 150 151 143 182 160 184 107 185 151 38 332 220 187 181 173 161
299 294 297 298 297 300 308 314 316 317 315 214 293 265 266 285 250 252 267 276 300 287 267 268 279 274 275 289 7 43 122 152 138 163 158 168 167 105 167 88 299 238 202 187 186 190 164
295 296 294 293 292 295 299 299 304 305 308 290 286 285 276 276 264 273 276 275 278 303 301 261 267 256 274 284 92 91 3 115 206 168 208 172 155 145 139 176 269 198 175 185 167 208 171
292 293 292 288 288 287 286 295 298 299 301 298 260 281 269 265 260 268 270 274 283 290 298 284 258 273 265 281 115 156 185 158 179 185 198 197 144 121 123 153 207 226 184 165 129 242 191
293 292 291 288 282 283 284 283 287 293 295 293 275 267 261 264 258 257 254 253 236 252 295 305 271 267 208 236 135 154 198 163 173 173 182 183 158 165 143 205 275 227 148 123 140 229 168
292 290 289 287 281 279 277 280 283 286 292 294 275 259 260 269 260 261 261 248 251 234 248 274 313 243 259 199 178 205 148 194 145 174 175 169 158 174 139 114 264 182 127 163 216 123 138
290 288 287 285 281 276 275 274 279 283 287 286 285 271 268 257 271 279 267 243 242 233 250 247 271 293 246 177 220 145 187 147 148 187 175 209 178 171 180 202 232 185 144 151 151 120 123